AAL198 KJFK-LIMC

Flight info

Callsign AAL198
Flight time N/A
Altitude 37000
Route HAPIE DCT YAHOO DCT KANNI N343B JOOPY/M083F390 NATX ELSOX DCT TAKAS/N0483F390 DCT ALUTA DCT KORER/N0485F410 DCT LEMKA DCT BEBIX/N0480F400 DCT VALKU/N0483F410 DCT TIS DCT MEBAK DCT GIPNO DCT BALSI DCT OBIGO DCT ROBEX DCT LAPRI/N0479F400 DCT MOGBO DCT KODOK DCT TOP M135 ASTIG ASTI3E
Aircraft B772/H-SDE2E3FGHIJ5LORVWXY/LB1D1

Departure

Time 2026-05-08 22:16
Airport John F. Kennedy International Airport (KJFK)

Arrival

Time N/A
Airport Milan Malpensa International Airport (LIMC)
Time Latitude Longitude Altitude Speed Heading
2026-05-08 21:49 40.64839 -73.79526 20 ft 0 kts 331°
2026-05-08 21:55 40.64838 -73.79526 20 ft 0 kts 331°
2026-05-08 22:01 40.64837 -73.79530 20 ft 3 kts 300°
2026-05-08 22:01 40.64839 -73.79543 22 ft 3 kts 285°
2026-05-08 22:02 40.64834 -73.79525 20 ft 3 kts 320°
2026-05-08 22:02 40.64823 -73.79516 23 ft 3 kts 329°
2026-05-08 22:02 40.64810 -73.79503 21 ft 3 kts 300°
2026-05-08 22:02 40.64805 -73.79488 23 ft 3 kts 261°
2026-05-08 22:03 40.64810 -73.79465 21 ft 3 kts 242°
2026-05-08 22:03 40.64818 -73.79447 22 ft 1 kts 241°
2026-05-08 22:03 40.64818 -73.79446 22 ft 4 kts 241°
2026-05-08 22:05 40.64813 -73.79457 22 ft 6 kts 241°
2026-05-08 22:06 40.64784 -73.79527 21 ft 7 kts 241°
2026-05-08 22:06 40.64774 -73.79550 22 ft 0 kts 239°
2026-05-08 22:06 40.64774 -73.79549 22 ft 0 kts 239°
2026-05-08 22:07 40.64774 -73.79550 20 ft 0 kts 239°
2026-05-08 22:08 40.64751 -73.79602 20 ft 13 kts 240°
2026-05-08 22:08 40.64702 -73.79709 20 ft 10 kts 222°
2026-05-08 22:08 40.64650 -73.79694 21 ft 14 kts 149°
2026-05-08 22:08 40.64541 -73.79608 23 ft 18 kts 164°
2026-05-08 22:09 40.64421 -73.79592 20 ft 17 kts 178°
2026-05-08 22:09 40.64304 -73.79597 20 ft 17 kts 183°
2026-05-08 22:09 40.64178 -73.79608 20 ft 19 kts 183°
2026-05-08 22:09 40.64050 -73.79579 24 ft 19 kts 150°
2026-05-08 22:10 40.63959 -73.79455 26 ft 19 kts 121°
2026-05-08 22:10 40.63891 -73.79305 23 ft 19 kts 121°
2026-05-08 22:10 40.63824 -73.79158 25 ft 19 kts 119°
2026-05-08 22:10 40.63760 -73.79008 23 ft 19 kts 122°
2026-05-08 22:11 40.63689 -73.78863 24 ft 19 kts 122°
2026-05-08 22:11 40.63622 -73.78716 25 ft 19 kts 120°
2026-05-08 22:11 40.63557 -73.78569 23 ft 19 kts 121°
2026-05-08 22:11 40.63491 -73.78421 24 ft 19 kts 120°
2026-05-08 22:12 40.63425 -73.78278 26 ft 18 kts 121°
2026-05-08 22:12 40.63361 -73.78136 26 ft 18 kts 120°
2026-05-08 22:12 40.63328 -73.77980 21 ft 18 kts 86°
2026-05-08 22:12 40.63325 -73.77846 24 ft 13 kts 123°
2026-05-08 22:13 40.63277 -73.77740 30 ft 13 kts 121°
2026-05-08 22:13 40.63226 -73.77626 24 ft 17 kts 119°
2026-05-08 22:13 40.63165 -73.77495 21 ft 17 kts 120°
2026-05-08 22:13 40.63105 -73.77359 20 ft 18 kts 122°
2026-05-08 22:14 40.63040 -73.77216 20 ft 18 kts 120°
2026-05-08 22:14 40.62987 -73.77097 21 ft 9 kts 124°
2026-05-08 22:14 40.62937 -73.77094 20 ft 8 kts 211°
2026-05-08 22:14 40.62897 -73.77126 20 ft 6 kts 211°
2026-05-08 22:15 40.62854 -73.77161 20 ft 13 kts 211°
2026-05-08 22:15 40.62835 -73.77267 24 ft 14 kts 304°
2026-05-08 22:15 40.62952 -73.77515 20 ft 63 kts 300°
2026-05-08 22:15 40.63312 -73.78319 25 ft 138 kts 300°
2026-05-08 22:16 40.63903 -73.79642 218 ft 185 kts 302°
2026-05-08 22:16 40.64518 -73.81152 1151 ft 191 kts 287°
2026-05-08 22:16 40.64625 -73.82308 1478 ft 194 kts 266°
2026-05-08 22:16 40.64305 -73.83968 2172 ft 185 kts 252°
2026-05-08 22:17 40.63790 -73.85505 2722 ft 184 kts 243°
2026-05-08 22:17 40.63043 -73.86866 3217 ft 184 kts 230°
2026-05-08 22:17 40.62087 -73.88013 3651 ft 191 kts 222°
2026-05-08 22:17 40.60864 -73.88896 3503 ft 211 kts 203°
2026-05-08 22:18 40.59486 -73.89617 3747 ft 213 kts 204°
2026-05-08 22:18 40.57994 -73.89757 4350 ft 226 kts 167°
2026-05-08 22:18 40.56498 -73.89020 4920 ft 232 kts 166°
2026-05-08 22:18 40.54947 -73.88426 4971 ft 232 kts 166°
2026-05-08 22:19 40.53447 -73.87654 5005 ft 233 kts 160°
2026-05-08 22:19 40.52001 -73.86663 5008 ft 238 kts 149°
2026-05-08 22:19 40.50682 -73.85217 5385 ft 260 kts 136°
2026-05-08 22:19 40.49509 -73.83303 6090 ft 277 kts 126°
2026-05-08 22:20 40.48564 -73.81038 6772 ft 288 kts 115°
2026-05-08 22:20 40.47911 -73.78534 7424 ft 293 kts 104°
2026-05-08 22:20 40.47665 -73.76860 7882 ft 295 kts 97°